SUPERBIRD-C2

Last updated on Sun Jun 21 2026 00:03:04 GMT+0000 (Coordinated Universal Time)

1 33274U 08038A 26171.45629023 -.00000311 00000+0 00000+0 0 9990 2 33274 2.3705 81.2250 0006108 26.3892 101.3120 1.00271955105768
UTC large
Height (km)
Speed (km/s)
/
Latitude / Longitude
Inclination (degrees)
Orbital Period (minutes)
Azimuth
Elevation
Range (km)
Doppler Factor

Next 0 passes for location: London (51.5072 / 0.1276)

No passes found over London.
SUPERBIRD-C2